Flag for U.S.A. Weather past 2 weeks in Provincetown, Massachusetts, U.S.A.

Now
57 °F

Passing clouds.


Feels Like: 54 °F
Forecast: 50 / 59 °F
Wind: 13 mph from Northeast

Location: Provincetown Weather Reporting Station

Current Time: Sep 19, 2014 at 12:12:16 PM

Latest Report: Sep 19, 2014 at 11:35 AM


Visibility: 10 mi

Pressure: 30.38 "Hg

Humidity: 48%

Dew point: 37 °F

Location of ProvincetownLocation

Historic Weather in Provincetown — Graph

°F

Provincetown temperature yesterday

Maximum temperature yesterday: 68 °F (at 2:35 PM)
Minimum temperature yesterday: 52 °F (at 2:35 AM)
Average temperature yesterday: 61 °F

Past Weeks' High & Low Weather Summary

 TemperatureHumidityPressure
High82 °F (Sep 4, 3:55 PM)94% (Sep 5, 3:35 AM)30.38 "Hg (Sep 5, 3:35 AM)
Low41 °F (Sep 15, 3:35 AM)42% (Sep 4, 3:55 PM)29.78 "Hg (Sep 6, 6:15 PM)
Average64 °F75%30.10 "Hg
* Reported Sep 4 10:15 AM — Sep 19 10:55 AM, Provincetown, Weather by CustomWeather, © 2014

Note: Actual official high and low records may vary slightly from our data, if they occured in-between our weather recording intervals... More about our weather records

Advertising

Provincetown weather history for previous 24 hours

 ConditionsComfort  
Time TempWeatherWind HumidityBarometerVisibility
10:55 AM
Sep 19
55 °FPartly sunny.15 mph51%30.37 "Hg10 mi
10:35 AM55 °FScattered clouds.12 mph51%30.37 "Hg10 mi
10:15 AM54 °FPassing clouds.13 mph51%30.37 "Hg10 mi
9:55 AM55 °FSunny.13 mph51%30.36 "Hg10 mi
9:35 AM54 °FSunny.14 mph51%30.36 "Hg10 mi
9:15 AM54 °FPassing clouds.13 mph54%30.35 "Hg10 mi
8:55 AM54 °FPassing clouds.15 mph51%30.35 "Hg10 mi
8:35 AM54 °FSunny.16 mph51%30.34 "Hg10 mi
8:15 AM54 °FPassing clouds.13 mph51%30.33 "Hg10 mi
7:55 AM52 °FSunny.15 mph54%30.32 "Hg10 mi
7:35 AM52 °FSunny.15 mph54%30.31 "Hg10 mi
7:15 AM52 °FClear.15 mph58%30.30 "Hg10 mi
6:55 AM52 °FClear.17 mph58%30.29 "Hg10 mi
6:35 AM52 °FClear.17 mph58%30.28 "Hg10 mi
6:15 AM52 °FClear.17 mph58%30.27 "Hg10 mi
5:55 AM52 °FPassing clouds.17 mph58%30.26 "Hg10 mi
5:35 AM54 °FPassing clouds.15 mph58%30.25 "Hg10 mi
5:15 AM54 °FPassing clouds.18 mph54%30.24 "Hg10 mi
4:55 AM54 °FClear.16 mph58%30.23 "Hg10 mi
4:35 AM54 °FClear.18 mph58%30.22 "Hg10 mi
4:15 AM54 °FClear.16 mph58%30.21 "Hg10 mi
3:55 AM55 °FClear.17 mph59%30.20 "Hg10 mi
3:35 AM55 °FPassing clouds.20 mph59%30.19 "Hg10 mi
3:15 AM55 °FPassing clouds.18 mph63%30.19 "Hg10 mi
2:55 AM55 °FPassing clouds.18 mph63%30.18 "Hg10 mi
2:35 AM57 °FPassing clouds.18 mph59%30.18 "Hg10 mi
1:55 AM57 °FPartly cloudy.17 mph59%30.16 "Hg10 mi
1:35 AM57 °FPartly cloudy.17 mph63%30.15 "Hg10 mi
1:15 AM57 °FOvercast.16 mph63%30.15 "Hg10 mi
12:55 AM59 °FOvercast.17 mph59%30.14 "Hg10 mi
12:35 AM59 °FOvercast.17 mph59%30.14 "Hg10 mi
12:15 AM59 °FMostly cloudy.15 mph63%30.13 "Hg10 mi
11:55 PM
Sep 18
59 °FMostly cloudy.17 mph63%30.12 "Hg10 mi
11:35 PM61 °FMostly cloudy.18 mph63%30.11 "Hg10 mi
11:15 PM61 °FOvercast.18 mph63%30.11 "Hg10 mi
10:55 PM63 °FOvercast.18 mph68%30.10 "Hg10 mi
10:35 PM63 °FPassing clouds.20 mph73%30.09 "Hg10 mi
10:15 PM64 °FMostly cloudy.14 mph68%30.07 "Hg10 mi
9:55 PM64 °FOvercast.9 mph68%30.07 "Hg10 mi
9:35 PM61 °FMostly cloudy.3 mph77%30.06 "Hg10 mi
9:15 PM61 °FOvercast.No wind77%30.06 "Hg10 mi
8:55 PM59 °FMostly cloudy.3 mph82%30.05 "Hg10 mi
8:35 PM59 °FMostly cloudy.No wind77%30.04 "Hg10 mi
7:55 PM59 °FPassing clouds.No wind77%30.02 "Hg10 mi
7:35 PM61 °FPartly sunny.No wind72%30.01 "Hg10 mi
7:15 PM61 °FBroken clouds.3 mph72%30.01 "Hg10 mi
6:55 PM61 °FPartly sunny.3 mph72%30.00 "Hg10 mi
6:35 PM63 °FPartly sunny.5 mph68%29.99 "Hg10 mi
6:15 PM63 °FScattered clouds.5 mph68%29.99 "Hg10 mi
5:55 PM64 °FSunny.5 mph64%29.98 "Hg10 mi
5:35 PM66 °FSunny.7 mph60%29.98 "Hg10 mi
5:15 PM66 °FSunny.6 mph60%29.97 "Hg10 mi
4:55 PM66 °FSunny.6 mph60%29.97 "Hg10 mi
4:35 PM68 °FSunny.6 mph53%29.97 "Hg10 mi
4:15 PM66 °FSunny.5 mph60%29.97 "Hg10 mi
3:55 PM68 °FSunny.5 mph56%29.97 "Hg10 mi
3:35 PM68 °FSunny.6 mph56%29.97 "Hg10 mi
3:15 PM68 °FSunny.6 mph53%29.96 "Hg10 mi
2:55 PM68 °FSunny.5 mph56%29.96 "Hg10 mi
2:35 PM68 °FSunny.8 mph56%29.96 "Hg10 mi
2:15 PM66 °FSunny.7 mph60%29.96 "Hg10 mi
1:55 PM66 °FSunny.7 mph60%29.96 "Hg10 mi
1:35 PM66 °FSunny.7 mph60%29.97 "Hg10 mi
1:15 PM66 °FSunny.8 mph60%29.97 "Hg10 mi
12:55 PM66 °FSunny.10 mph60%29.97 "Hg10 mi
12:35 PM66 °FSunny.9 mph60%29.97 "Hg10 mi
12:15 PM66 °FSunny.8 mph60%29.97 "Hg10 mi
Weather by CustomWeather, © 2014

See weather overviewHow to use our weather pages